Location: Aalen
(48.8330°N, 10.1000°E)
Time: 13:39:58
(UTC+02:00)

BEESAT - Visible Passes

Search period start: 20 September 2021 00:00
Search period end: 30 September 2021 00:00
Orbit: 700 x 708 km, 98.6° (Epoch: 19 September)

Date Brightness Start Highest point End Pass type
(mag) Time Alt. Az. Time Alt. Az. Time Alt. Az.
20 Sep ? 20:10:06 10° NE 20:14:09 27° E 20:18:09 10° SSE visible
20 Sep ? 21:47:32 10° N 21:52:01 42° WNW 21:56:29 10° SW visible
21 Sep ? 20:52:51 10° NNE 20:57:36 65° ESE 21:02:18 10° S visible
21 Sep ? 22:31:30 10° NNW 22:34:52 20° WNW 22:38:15 10° WSW visible
22 Sep ? 06:26:58 10° E 06:30:12 18° ENE 06:33:27 10° NNE visible
22 Sep ? 19:59:06 10° NE 20:02:44 21° E 20:06:21 10° SE visible
22 Sep ? 21:36:09 10° N 21:40:47 53° WNW 21:45:23 10° SW visible
23 Sep ? 20:41:37 10° NNE 20:46:16 51° E 20:50:53 10° S visible
23 Sep ? 22:19:55 10° N 22:23:43 24° WNW 22:27:28 10° WSW visible
24 Sep ? 06:16:22 10° E 06:19:03 15° NE 06:21:45 10° NNE visible
24 Sep ? 19:48:14 10° NE 19:51:19 17° E 19:54:22 10° SE visible
24 Sep ? 21:24:47 10° N 21:29:31 67° WNW 21:34:13 10° SSW visible
24 Sep ? 23:04:54 10° NW 23:06:23 11° NW 23:07:51 10° WNW visible
25 Sep ? 20:30:26 10° NNE 20:34:55 40° E 20:39:22 10° SSE visible
25 Sep ? 22:08:25 10° N 22:12:31 29° WNW 22:16:35 10° WSW visible
26 Sep ? 06:06:02 10° ENE 06:07:55 12° NE 06:09:50 10° NNE visible
26 Sep ? 19:37:36 10° ENE 19:39:51 13° E 19:42:07 10° ESE visible
26 Sep ? 21:13:27 10° NNE 21:18:14 85° WNW 21:22:59 10° SSW visible
26 Sep ? 22:52:50 10° NNW 22:55:15 14° NW 22:57:39 10° W visible
27 Sep ? 20:19:17 10° NNE 20:23:32 31° E 20:27:45 10° SSE visible
27 Sep ? 21:56:58 10° N 22:01:19 36° WNW 22:05:37 10° SW visible
28 Sep ? 21:02:09 10° NNE 21:06:57 77° ESE 21:11:41 10° S visible
28 Sep ? 22:41:04 10° NNW 22:44:07 17° WNW 22:47:08 10° W visible
29 Sep ? 06:35:54 10° ESE 06:39:26 21° ENE 06:42:59 10° NNE visible
29 Sep ? 20:08:13 10° NE 20:12:08 25° E 20:16:02 10° SSE visible
29 Sep ? 21:45:32 10° N 21:50:04 45° WNW 21:54:35 10° SW visible
